#timestamp,LO_Frequency,Hit 
1501459255.1,286046999.9,P
1501459275.8,286046998.2,P
1501459295.7,286046999.7,N
1501459315.5,286047004.0,P
1501459335.4,286047002.7,N
1501459355.2,286047002.8,N
1501459375.0,286047000.3,N
1501459375.9,286047000.3,N
1501459395.8,286046998.2,N
1501459415.6,286047000.9,N
1501459435.5,286047000.7,N
1501459455.3,286047000.4,N
1501459475.1,286047002.4,N
1501459495.9,286047000.1,N
1501459515.7,286047001.0,N
1501459535.5,286046998.6,N
1501459555.4,286046999.1,N
1501459575.2,286046999.3,N
1501459595.1,286046999.1,N
1501459596.0,286046999.1,N
1501459615.8,286047000.0,N
1501459635.6,286046998.1,N
1501459655.5,286046998.8,N
1501459675.3,286046999.0,N
1501459695.2,286046998.2,N
1501459715.9,286046999.5,N
1501459735.7,286046998.4,N
1501459755.6,286046999.1,N
1501459775.4,286046996.7,N
1501459795.2,286047001.2,N
1501459815.4,286047000.7,N
1501459835.2,286046999.8,N
1501459855.1,286046999.9,N
1501459856.0,286046999.9,N
1501459875.8,286047000.1,N
1501459895.7,286046998.2,N
1501459915.5,286046999.1,N
1501459935.3,286046998.6,N
1501459955.2,286046999.1,N
1501459975.0,286046998.7,N
1501459975.9,286046998.7,N
1501459995.7,286047000.9,N
1501460015.6,286046999.2,N
1501460035.4,286047000.4,N
1501460055.3,286046998.6,N
1501460075.1,286046999.3,N
1501460076.0,286046999.3,N
1501460095.8,286046999.6,N
1501460115.7,286046999.3,N
1501460135.5,286046998.6,N
1501460155.3,286047000.3,N
1501460175.2,286047001.0,N
1501460195.0,286046998.3,N
1501460195.9,286046998.3,N
1501460215.8,286047001.0,N
1501460235.6,286047000.1,N
1501460255.4,286047000.9,N
1501460275.3,286046999.0,N
1501460295.1,286046999.5,N
1501460315.9,286047000.7,N
1501460335.7,286047000.3,N
1501460355.5,286047000.5,N
1501460375.4,286046998.7,N
1501460395.2,286046999.7,N
1501460415.0,286047002.6,N
1501460415.9,286047002.6,N
1501460435.8,286047002.7,N
1501460455.6,286047001.0,N
1501460475.5,286047000.3,N
1501460495.3,286047000.6,N
1501460515.1,286046999.9,N
1501460535.9,286047001.6,N
1501460555.7,286047004.1,P
1501460575.6,286047002.8,N
1501460595.4,286047003.2,N
1501460615.2,286047004.4,N
1501460635.1,286047004.0,N
1501460636.0,286047004.0,N
1501460655.8,286047000.1,N
1501460675.6,286047002.8,N
1501460695.5,286047002.8,N
1501460715.3,286046998.2,N
1501460735.2,286047000.5,N
1501460755.9,286046998.6,N
1501460775.7,286046998.7,N
1501460795.6,286046998.8,N
1501460815.4,286047000.3,N
1501460835.2,286047002.6,N
1501460855.1,286046999.9,N
1501460856.0,286046999.9,N
1501460875.8,286047002.8,N
1501460895.7,286047000.4,N
1501460915.5,286046999.9,N
1501460935.3,286046998.5,N
1501460955.2,286047000.3,N
1501460975.0,286047000.2,N
1501460975.9,286047000.2,N
1501460995.8,286047004.4,N
1501461015.6,286047004.3,N
1501461035.4,286047000.1,N
1501461055.3,286046998.5,N
1501461075.1,286047000.0,N
1501461095.8,286046998.7,N
1501461115.7,286046998.1,N
1501461135.5,286046998.1,N
1501461155.4,286046998.7,N
1501461175.2,286046998.6,N
1501461195.0,286046997.2,N
1501461195.9,286046997.2,N
1501461215.8,286046999.1,N
1501461235.6,286046998.9,N
1501461255.5,286046997.2,N
1501461275.3,286046995.4,N
1501461295.1,286046995.0,N
1501461315.9,286046995.3,N
1501461335.7,286046995.1,N
1501461355.5,286046996.0,N
1501461375.4,286046995.2,N
1501461395.2,286046996.2,N
1501461415.1,286046998.0,N
1501461416.0,286046998.0,N
1501461435.8,286046997.1,N
1501461455.6,286046996.5,N
1501461475.5,286046999.3,N
1501461495.3,286046996.8,N
1501461515.1,286046997.6,N
1501461535.9,286046996.8,N
1501461555.7,286046997.0,N
1501461575.6,286046996.8,N
1501461595.4,286046997.3,N
1501461615.2,286046997.1,N
1501461635.1,286046994.9,P
1501461636.0,286046994.9,P
1501461655.8,286047000.0,N
1501461675.7,286047000.5,N
1501461695.5,286047000.3,N
1501461715.3,286047000.3,N
1501461735.2,286046999.8,N
1501461755.0,286047002.3,N
1501461755.9,286047002.3,N
1501461775.8,286047002.8,N
1501461795.6,286047001.1,N
1501461815.4,286047002.2,N
1501461835.3,286047003.1,N
1501461855.1,286047001.5,N
1501461875.8,286047000.5,N
1501461895.7,286047001.1,N
1501461915.5,286047000.4,N
1501461935.4,286047000.8,N
1501461955.2,286046999.7,N
1501461975.0,286047001.0,N
1501461975.9,286047001.0,N
1501461995.8,286047002.7,N
1501462015.6,286047002.7,N
1501462035.4,286046999.7,N
1501462055.3,286047004.4,N
1501462075.1,286047003.2,N
1501462095.9,286047001.9,N
1501462115.7,286046999.7,N
1501462135.5,286047002.7,N
1501462155.4,286047002.5,N
1501462175.2,286047002.6,N
1501462195.0,286047002.3,N
1501462196.0,286047002.3,N
1501462215.8,286047000.3,N
1501462235.6,286047000.2,N
1501462255.5,286047001.7,N
1501462275.3,286047002.2,N
1501462295.1,286047002.0,N
1501462315.9,286047001.9,N
1501462335.7,286047002.5,N
1501462355.6,286047002.2,N
1501462375.4,286047002.2,N
1501462395.2,286046999.8,N
1501462415.1,286047002.3,N
1501462416.0,286047002.3,N
1501462435.8,286046999.8,N
1501462455.6,286046999.7,N
1501462475.5,286047001.8,N
1501462495.3,286047001.3,N
1501462515.2,286047001.9,N
1501462535.9,286047000.1,N
1501462555.7,286047003.8,P
1501462575.6,286047003.5,P
1501462595.4,286047002.5,N
1501462615.3,286047003.5,P
1501462635.1,286046998.5,P
1501462636.0,286046998.5,N
1501462655.8,286047001.0,N
1501462675.7,286047000.9,N
1501462695.5,286046998.9,N
1501462715.4,286046999.4,N
1501462735.2,286046999.3,N
1501462755.0,286046999.2,N
1501462755.9,286046999.2,N
1501462775.8,286046998.4,N
1501462795.6,286047000.7,N
